Location: Unspecified
(56.5167°N, 0.0000°E)
Time: 14:33:02
(UTC+02:00)

Cosmos 1674 - Visible Passes

Search period start: 02 July 2015 00:00
Search period end: 12 July 2015 00:00
Orbit: 505 x 533 km, 82.5° (Epoch: 01 July)

Date Brightness Start Highest point End Pass type
(mag) Time Alt. Az. Time Alt. Az. Time Alt. Az.
02 Jul 6.0 00:25:29 10° WNW 00:26:47 11° NW 00:27:58 10° NW visible
03 Jul 5.9 00:10:54 10° W 00:12:39 12° NW 00:14:18 10° NNW visible
03 Jul 5.8 23:56:26 10° W 23:58:32 14° NW 00:00:31 10° NNW visible
